STARLINK-32567

Last updated on Thu Nov 21 2024 00:02:06 GMT+0000 (Coordinated Universal Time)

1 61930U 24207U 24325.58335648 -.00690406 15542-3 -19151-2 0 9998 2 61930 43.0021 96.4517 0001503 284.1938 164.8318 15.92819893 2601
UTC large
Height (km)
Speed (km/s)
/
Latitude / Longitude
Inclination (degrees)
Orbital Period (minutes)
Azimuth
Elevation
Range (km)
Doppler Factor

Next 0 passes for location: London (51.5072 / 0.1276)

Sorry there are no passes over London.